Elmira, NY

8:03 PM EST on December 06, 2019 (GMT -0500)
Elmira-Corning Regional

Weather History for KELM - May, 2019

Change the Weather History Date:

Tuesday, May 28, 2019

  Actual Average Record
Temperature  
Mean Temperature 68 °F -  
Max Temperature 80 °F 72 °F 95 °F (1931)
Min Temperature 55 °F 46 °F 28 °F (1969)
Cooling Degree Days 2    
Growing Degree Days 18 (Base 50)    
Moisture  
Dew Point 58 °F    
Average Humidity 79    
Maximum Humidity 89    
Minimum Humidity 60    
Precipitation  
Precipitation 0.14 in - - ()
Sea Level Pressure  
Sea Level Pressure 29.72 in    
Wind  
Wind Speed 5 mph (North)    
Max Wind Speed 13 mph    
Max Gust Speed 23 mph    
Visibility 10 miles    
Events Rain , Thunderstorm    
Averages and records for this station are not official NWS values.
T = Trace of Precipitation, MM = Missing Value Source: NWS Daily Summary

Daily Weather History Graph

Daily Weather History Graph

Search for Another Location

Airport or City:

Astronomy

May. 28, 2019 Rise Set
Actual Time 5:36 AM EDT 8:33 PM EDT
Civil Twilight 5:02 AM EDT 9:07 PM EDT
Nautical Twilight 4:20 AM EDT 9:49 PM EDT
Astronomical Twilight 3:31 AM EDT 10:39 PM EDT
Moon 2:55 AM EDT (5/28) 2:34 PM EDT (5/28)
Length of Visible Light 16h 04m
Length of Day
14h 57m
Waning Crescent, 32% of the Moon is Illuminated
May 28
Waning Crescent
Jun 3
New
Jun 10
First Quarter
Jun 17
Full
Jun 25
Last Quarter

Hourly Weather History & Observations

Time (EDT) Temp. Heat Index Dew Point Humidity Pressure Visibility Wind Dir Wind Speed Gust Speed Precip Events Conditions
12:53 AM 55.0 °F - 50.0 °F 83% 29.91 in 10.0 mi WNW 3.5 mph - N/A   Clear
1:53 AM 55.0 °F - 50.0 °F 83% 29.90 in 10.0 mi Calm Calm - N/A   Clear
2:53 AM 55.0 °F - 51.1 °F 86% 29.90 in 10.0 mi Calm Calm - N/A   Mostly Cloudy
3:53 AM 55.9 °F - 52.0 °F 87% 29.86 in 10.0 mi Calm Calm - N/A   Overcast
4:53 AM 55.9 °F - 51.1 °F 84% 29.83 in 10.0 mi Calm Calm - N/A   Mostly Cloudy
5:53 AM 57.0 °F - 53.1 °F 87% 29.82 in 9.0 mi NNW 3.5 mph - 0.02 in Rain Light Rain
6:53 AM 57.9 °F - 54.0 °F 87% 29.80 in 7.0 mi East 4.6 mph - 0.05 in Rain Light Rain
7:53 AM 57.0 °F - 54.0 °F 89% 29.78 in 5.0 mi Variable 3.5 mph - 0.04 in Rain Light Rain
8:05 AM 57.9 °F - 54.0 °F 87% 29.78 in 3.0 mi East 6.9 mph - 0.01 in Rain Light Rain
8:35 AM 57.9 °F - 54.0 °F 87% 29.78 in 10.0 mi Calm Calm - 0.02 in   Overcast
8:53 AM 59.0 °F - 55.0 °F 87% 29.76 in 10.0 mi Calm Calm - 0.02 in   Overcast
9:32 AM 59.0 °F - 55.0 °F 87% 29.74 in 10.0 mi Variable 3.5 mph - N/A   Overcast
9:53 AM 59.0 °F - 55.0 °F 87% 29.73 in 10.0 mi SE 3.5 mph - N/A   Overcast
10:53 AM 61.0 °F - 57.0 °F 87% 29.71 in 8.0 mi East 5.8 mph - 0.01 in Rain Light Rain
11:53 AM 64.0 °F - 60.1 °F 87% 29.69 in 10.0 mi NNE 3.5 mph - 0.00 in   Overcast
12:53 PM 69.1 °F - 63.0 °F 81% 29.66 in 10.0 mi Calm Calm - N/A   Overcast
1:40 PM 73.9 °F - 64.9 °F 73% 29.66 in 10.0 mi West 9.2 mph - N/A   Overcast
1:50 PM 73.4 °F - 64.4 °F 73% 29.65 in 10.0 mi WSW 10.4 mph - N/A   Mostly Cloudy
1:53 PM 73.9 °F - 64.9 °F 73% 29.64 in 10.0 mi WSW 11.5 mph - N/A   Mostly Cloudy
2:00 PM 73.9 °F - 64.9 °F 73% 29.65 in 10.0 mi WSW 11.5 mph - N/A   Mostly Cloudy
2:53 PM 77.0 °F - 66.9 °F 71% 29.62 in 10.0 mi SSW 9.2 mph - N/A   Scattered Clouds
3:53 PM 78.1 °F - 68.0 °F 71% 29.61 in 10.0 mi NNE 4.6 mph - N/A   Mostly Cloudy
4:36 PM 80.1 °F 81.9 °F 64.9 °F 60% 29.61 in 10.0 mi NW 11.5 mph - N/A Thunderstorm Scattered Clouds
4:51 PM 78.8 °F - 64.4 °F 61% 29.62 in 10.0 mi NW 8.1 mph - N/A   Scattered Clouds
4:53 PM 79.0 °F - 64.0 °F 60% 29.60 in 10.0 mi NNW 10.4 mph 16.1 mph N/A   Mostly Cloudy
5:53 PM 77.0 °F - 63.0 °F 62% 29.62 in 10.0 mi WNW 12.7 mph 23.0 mph N/A   Partly Cloudy
6:53 PM 75.9 °F - 63.0 °F 64% 29.63 in 10.0 mi NW 10.4 mph 17.3 mph N/A   Partly Cloudy
7:53 PM 72.0 °F - 62.1 °F 71% 29.66 in 10.0 mi North 8.1 mph - N/A   Scattered Clouds
8:53 PM 66.0 °F - 60.1 °F 81% 29.68 in 10.0 mi East 9.2 mph - N/A   Scattered Clouds
9:53 PM 63.0 °F - 57.9 °F 84% 29.72 in 10.0 mi ENE 9.2 mph - N/A   Overcast
10:23 PM 62.1 °F - 55.9 °F 80% 29.73 in 10.0 mi ENE 10.4 mph - N/A   Overcast
10:53 PM 61.0 °F - 55.0 °F 81% 29.72 in 10.0 mi ENE 10.4 mph - N/A   Overcast
11:53 PM 59.0 °F - 54.0 °F 83% 29.72 in 10.0 mi NE 11.5 mph - N/A   Overcast